Flag for Germany Weather past 2 weeks in Zweibrücken, Rhineland-Palatinate, Germany

Now
50 °F

Passing clouds.


Feels Like: 47 °F
Forecast: 44 / 66 °F
Wind: 8 mph from Northeast

Location: Saarbruecken / Ensheim


UV Index: 3 (Moderate)

Visibility: N/A


Pressure: 29.77 "Hg

Humidity: 76%

Dew point: 43 °F

Location of ZweibrückenLocation

Historic Weather in Zweibrücken

°F

Zweibrücken temperature yesterday

Maximum temperature yesterday: 59 °F (at 5:20 PM)
Minimum temperature yesterday: 36 °F (at 2:50 AM)
Average temperature yesterday: 48 °F

Past Weeks' High & Low Weather Summary

 TemperatureHumidityPressure
High70 °F (Apr 7, 5:20 PM)94% (Apr 5, 8:50 AM)30.39 "Hg (Apr 5, 8:50 AM)
Low34 °F (Apr 9, 6:50 AM)22% (Apr 17, 5:20 PM)29.77 "Hg (Apr 19, 7:20 PM)
Average51 °F63%30.09 "Hg
* Reported Apr 5 12:20 AM — Apr 20 12:50 AM, Zweibrücken, Weather by CustomWeather, © 2014

Note: Actual official high and low records may vary slightly from our data, if they occured in-between our weather recording intervals... More about our weather records

Advertising

Historic Weather Conditions — Data for Previous 24 hours

 ConditionsComfort  
Time TempWeatherWind HumidityBarometerVisibility
12:50 AM
Apr 20
52 °FPassing clouds.13 mph72%29.77 "HgN/A
12:20 AM54 °FPassing clouds.14 mph67%29.77 "HgN/A
11:50 PM
Apr 19
54 °FPassing clouds.13 mph67%29.77 "HgN/A
11:20 PM54 °FClear.13 mph67%29.77 "Hg10 mi
10:50 PM54 °FPassing clouds.13 mph67%29.77 "HgN/A
10:20 PM55 °FPassing clouds.15 mph63%29.77 "HgN/A
9:50 PM57 °FPassing clouds.10 mph59%29.80 "HgN/A
9:20 PM57 °FPartly sunny.13 mph59%29.80 "HgN/A
8:50 PM59 °FPartly sunny.14 mph55%29.80 "HgN/A
8:20 PM59 °FPartly sunny.9 mph55%29.80 "HgN/A
7:50 PM59 °FPartly sunny.12 mph51%29.80 "HgN/A
7:20 PM59 °FSunny.10 mph48%29.77 "Hg10 mi
6:50 PM59 °FSunny.9 mph48%29.80 "Hg10 mi
6:20 PM59 °FScattered clouds.9 mph48%29.80 "HgN/A
5:50 PM57 °FSunny.7 mph48%29.80 "Hg10 mi
5:20 PM59 °FScattered clouds.14 mph45%29.80 "HgN/A
4:50 PM57 °FPartly sunny.12 mph48%29.83 "HgN/A
4:20 PM57 °FPartly sunny.14 mph44%29.83 "HgN/A
3:50 PM57 °FPartly sunny.17 mph48%29.83 "HgN/A
3:20 PM55 °FPartly sunny.13 mph47%29.86 "HgN/A
2:50 PM55 °FScattered clouds.14 mph51%29.86 "HgN/A
2:20 PM55 °FPassing clouds.18 mph47%29.86 "HgN/A
1:50 PM54 °FPassing clouds.17 mph51%29.86 "HgN/A
1:20 PM54 °FPassing clouds.18 mph51%29.89 "HgN/A
12:50 PM52 °FScattered clouds.16 mph54%29.89 "HgN/A
12:20 PM50 °FBroken clouds.18 mph58%29.92 "HgN/A
11:50 AM46 °FBroken clouds.14 mph66%29.92 "HgN/A
11:20 AM46 °FBroken clouds.12 mph66%29.92 "HgN/A
10:50 AM45 °FBroken clouds.13 mph71%29.92 "HgN/A
10:20 AM45 °FBroken clouds.13 mph71%29.92 "HgN/A
9:50 AM43 °FLight rain. Broken clouds.13 mph76%29.95 "HgN/A
9:20 AM43 °FBroken clouds.13 mph71%29.95 "HgN/A
8:50 AM41 °FPartly sunny.13 mph76%29.92 "HgN/A
8:20 AM41 °FPartly sunny.12 mph76%29.92 "HgN/A
7:50 AM39 °FSunny.10 mph75%29.92 "Hg10 mi
7:20 AM39 °FClear.12 mph75%29.92 "Hg10 mi
6:50 AM39 °FClear.12 mph75%29.92 "Hg10 mi
6:20 AM39 °FClear.12 mph75%29.92 "Hg10 mi
5:50 AM37 °FPassing clouds.10 mph75%29.92 "HgN/A
5:20 AM39 °FPassing clouds.12 mph70%29.92 "HgN/A
4:50 AM39 °FPassing clouds.9 mph70%29.92 "HgN/A
4:20 AM36 °FPassing clouds.8 mph81%29.92 "HgN/A
3:50 AM36 °FClear.3 mph75%29.92 "Hg10 mi
3:20 AM36 °FClear.3 mph75%29.92 "Hg10 mi
2:50 AM36 °FClear.2 mph75%29.92 "Hg10 mi
2:20 AM39 °FClear.6 mph65%29.92 "Hg10 mi
1:50 AM39 °FClear.7 mph65%29.92 "Hg10 mi
1:20 AM39 °FClear.7 mph65%29.92 "Hg10 mi
Weather by CustomWeather, © 2014

See weather overview